Regional Weather Roundup
Issued by NWS

Home | Current Version | Previous Version | Text Only | Print | Product List | Glossary Off
Versions: 1 2 3 4 5 6 7 8 9 10 11 12 13 14 15 16 17 18 19 20 21 22 23 24 25 26 27 28 29 30 31 32 33 34 35 36 37 38 39 40 41 42 43 44 45 46 47 48 49 50

000
ASUS43 KFSD 270710
RWRSD

WEATHER ROUNDUP FOR SOUTH DAKOTA
NATIONAL WEATHER SERVICE SIOUX FALLS SD
200 AM CDT THU AUG 27 2015

NOTE: "FAIR" INDICATES FEW OR NO CLOUDS BELOW 12,000 FEET WITH NO
SIGNIFICANT WEATHER AND/OR OBSTRUCTIONS TO VISIBILITY.


SDZ001>005-009-010-012>017-270800-
NORTHWEST AND NORTH CENTRAL SOUTH DAKOTA

CITY           SKY/WX    TMP DP  RH WIND       PRES   REMARKS
BUFFALO          N/A     67  62  84 E5        29.96R
MOBRIDGE       CLOUDY    68  67  96 S5        29.98R THUNDER
$$

SDZ012>016-024>037-041>051-057-063-072>074-270800-
SOUTHWEST AND SOUTH CENTRAL SOUTH DAKOTA

CITY           SKY/WX    TMP DP  RH WIND       PRES   REMARKS
RAPID CTY ARPT LGT RAIN  64  60  87 NE29G38   29.99F
PIERRE         RAIN      71  68  90 W14       30.03R
CUSTER         CLOUDY    60  55  83 VRB5      30.12F
ELLSWORTH AFB  LGT RAIN  64  61  90 E24G31    30.00
PHILIP         LGT RAIN  67  60  78 NE26      30.02R
PINE RIDGE     CLOUDY    72  64  76 NE26G37   30.01R
WINNER         FAIR      76  65  68 SE13G25   29.93R
$$

SDZ004>011-016>023-039-040-270800-
NORTHEAST SOUTH DAKOTA

CITY           SKY/WX    TMP DP  RH WIND       PRES   REMARKS
ABERDEEN       CLOUDY    63  60  90 SE5       29.99F
WATERTOWN      PTCLDY    63  59  87 S12       30.02R
BROOKINGS      PTCLDY    63  57  82 SE7       30.06S
SISSETON         N/A     57  55  93 S6        30.02S
$$

SDZ017-020-022-023-036>040-048>070-270800-
SOUTHEAST SOUTH DAKOTA

CITY           SKY/WX    TMP DP  RH WIND       PRES   REMARKS
SIOUX FALLS    PTCLDY    65  60  84 SE7       30.04F
HURON          CLOUDY    67  62  84 SE12      29.99R
CHAMBERLAIN    LGT RAIN  69  67  91 NE3       30.02R
MITCHELL       CLOUDY    67  62  84 S14       29.99R
YANKTON        PTCLDY    64  61  88 SE7       30.00F
$$

ABBREVIATIONS USED IN REMARKS
   TC - TEMPERATURE IN CELSIUS
  WCI - WIND CHILL INDEX
   HX - HEAT INDEX
  VSB - VISIBILITY



USA.gov is the U.S. government's official web portal to all federal, state and local government web resources and services.